Weather in Polygyros

Greece     40°22′51″N   23°26′42″E
temp.,
°C
wind,
m/s
gust,
m/s
humid.,
%
clouds,
%
prec.,
mm/h
press.,
hPa
HPBL,
m
15 april, thu
thu1500:00+8wnw225938 0.0 101514
03:00+6nw226234 0.0 101622
06:00+4nnw22724 0.0 101721
09:00+8nnw22651 0.0 1018232
12:00+13n12509 0.0 10171265
15:00+13sse2354100 0.1 10161457
18:00+13s2359100 0.1 1015858
21:00+8ssw117899 0.1 101711
16 april, fri
fri1600:00+6ssw11813 0.0 101810
03:00+5ene118177 0.0 101811
06:00+4ene11925 0.0 101911
09:00+8e1279100 0.0 1020434
12:00+11ese326592 0.1 10201154
15:00+11e1167100 0.2 1019853
18:00+10ese1175100 0.1 1019224
21:00+8e2282100 0.1 101943
17 april, sat
sat1700:00+8e2273100 0.0 101838
03:00+6e2292100 0.0 101745
06:00+6ene2296100 0.0 101633
09:00+9e3582100 0.0 1016575
12:00+12e5665100 0.1 1014899
15:00+14ese456233 0.1 1012952
18:00+12ese357085 0.0 1011667
21:00+8ese238444 0.0 101153
18 april, sun
sun1800:00+8ese22915 0.0 101124
03:00+7ese229721 0.0 101135
06:00+7ese229842 0.0 101136
09:00+12se238423 0.0 1012319
12:00+16se236786 0.0 10111024
15:00+15se237094 0.1 1011813
18:00+15se227233 0.1 1010591
21:00+10se22917 0.1 101116
19 april, mon
mon1900:00+9sse009280 0.2 101110
03:00+8e11921 0.4 101010
06:00+7nnw119727 0.1 100810
09:00+10n1193100 1.5 1007252
12:00+12nw1182100 1.8 1005524
15:00+11sw4786100 7.9 1004585
18:00+11wnw2384100 2.8 1003361
21:00+8nw2295100 3.7 100549